AMX818 MMMX-MMCE

Flight info

Callsign AMX818
Flight time 1h 7m
Altitude 35000
Route ILETO3A ILETO UT109 VER UJ28 CME
Aircraft B38M/M-SDE1FGHILORVWXY/HB1

Departure

Time 2026-05-07 23:16
Airport Mexico City Benito Juárez International Airport (MMMX)

Arrival

Time 2026-05-08 00:23
Airport Ciudad del Carmen International Airport (MMCE)
Time Latitude Longitude Altitude Speed Heading
2026-05-07 22:44 19.42173 -99.08196 7305 ft 0 kts 212°
2026-05-07 23:03 19.42177 -99.08194 7305 ft 2 kts 207°
2026-05-07 23:04 19.42191 -99.08184 7305 ft 2 kts 227°
2026-05-07 23:04 19.42195 -99.08168 7305 ft 2 kts 292°
2026-05-07 23:04 19.42187 -99.08153 7305 ft 2 kts 301°
2026-05-07 23:04 19.42182 -99.08144 7305 ft 0 kts 302°
2026-05-07 23:10 19.42188 -99.08153 7305 ft 4 kts 301°
2026-05-07 23:10 19.42216 -99.08197 7305 ft 6 kts 324°
2026-05-07 23:10 19.42262 -99.08204 7305 ft 7 kts
2026-05-07 23:10 19.42313 -99.08201 7305 ft 7 kts
2026-05-07 23:11 19.42365 -99.08200 7305 ft 8 kts 350°
2026-05-07 23:11 19.42413 -99.08224 7305 ft 8 kts 330°
2026-05-07 23:11 19.42462 -99.08253 7305 ft 8 kts 330°
2026-05-07 23:11 19.42513 -99.08283 7305 ft 9 kts 330°
2026-05-07 23:12 19.42558 -99.08324 7305 ft 8 kts 295°
2026-05-07 23:12 19.42582 -99.08382 7305 ft 9 kts 294°
2026-05-07 23:12 19.42607 -99.08441 7305 ft 9 kts 293°
2026-05-07 23:12 19.42627 -99.08489 7305 ft 2 kts 294°
2026-05-07 23:13 19.42629 -99.08494 7305 ft 0 kts 294°
2026-05-07 23:13 19.42634 -99.08505 7305 ft 5 kts 294°
2026-05-07 23:13 19.42658 -99.08562 7305 ft 12 kts 294°
2026-05-07 23:14 19.42691 -99.08587 7307 ft 5 kts
2026-05-07 23:14 19.42713 -99.08562 7306 ft 0 kts 62°
2026-05-07 23:14 19.42714 -99.08561 7306 ft 1 kts 62°
2026-05-07 23:15 19.42777 -99.08447 7305 ft 48 kts 59°
2026-05-07 23:15 19.43060 -99.07943 7307 ft 110 kts 59°
2026-05-07 23:15 19.43546 -99.07076 7305 ft 161 kts 59°
2026-05-07 23:15 19.44191 -99.05917 7417 ft 196 kts 60°
2026-05-07 23:16 19.44909 -99.04655 8323 ft 210 kts 60°
2026-05-07 23:16 19.45692 -99.03340 9161 ft 215 kts 58°
2026-05-07 23:16 19.46544 -99.01961 9354 ft 234 kts 58°
2026-05-07 23:16 19.47477 -99.00435 9627 ft 259 kts 58°
2026-05-07 23:17 19.48477 -98.98782 10080 ft 279 kts 58°
2026-05-07 23:17 19.49533 -98.96975 10564 ft 294 kts 59°
2026-05-07 23:17 19.50595 -98.95083 11187 ft 301 kts 60°
2026-05-07 23:17 19.51674 -98.93164 11983 ft 304 kts 60°
2026-05-07 23:18 19.52749 -98.91251 12703 ft 308 kts 60°
2026-05-07 23:18 19.53592 -98.89144 13464 ft 310 kts 76°
2026-05-07 23:18 19.54156 -98.86938 14133 ft 315 kts 75°
2026-05-07 23:18 19.54746 -98.84689 14802 ft 318 kts 76°
2026-05-07 23:19 19.55342 -98.82418 15466 ft 321 kts 76°
2026-05-07 23:19 19.55946 -98.80121 16192 ft 324 kts 76°
2026-05-07 23:19 19.56556 -98.77804 16878 ft 328 kts 76°
2026-05-07 23:19 19.57167 -98.75452 17504 ft 333 kts 78°
2026-05-07 23:20 19.57317 -98.72999 17783 ft 342 kts 100°
2026-05-07 23:20 19.56595 -98.70577 18155 ft 348 kts 116°
2026-05-07 23:20 19.55580 -98.68195 18490 ft 358 kts 116°
2026-05-07 23:20 19.54547 -98.65786 19049 ft 359 kts 116°
2026-05-07 23:21 19.53495 -98.63367 19537 ft 363 kts 116°
2026-05-07 23:21 19.52428 -98.60930 20076 ft 366 kts 117°
2026-05-07 23:21 19.51354 -98.58488 20583 ft 370 kts 117°
2026-05-07 23:21 19.50261 -98.56004 21080 ft 373 kts 117°
2026-05-07 23:22 19.49167 -98.53517 21582 ft 376 kts 117°
2026-05-07 23:22 19.48049 -98.50981 22086 ft 380 kts 117°
2026-05-07 23:22 19.46921 -98.48420 22598 ft 383 kts 117°
2026-05-07 23:22 19.45802 -98.45882 23100 ft 386 kts 117°
2026-05-07 23:23 19.44652 -98.43276 23572 ft 390 kts 117°
2026-05-07 23:23 19.43511 -98.40692 23990 ft 393 kts 117°
2026-05-07 23:23 19.42349 -98.38060 24413 ft 395 kts 117°
2026-05-07 23:23 19.41178 -98.35411 24820 ft 398 kts 117°
2026-05-07 23:24 19.39998 -98.32742 25221 ft 401 kts 117°
2026-05-07 23:24 19.38811 -98.30058 25630 ft 403 kts 117°
2026-05-07 23:24 19.37632 -98.27392 26008 ft 406 kts 117°
2026-05-07 23:24 19.36427 -98.24670 26377 ft 409 kts 117°
2026-05-07 23:25 19.35211 -98.21922 26737 ft 411 kts 117°
2026-05-07 23:25 19.33991 -98.19171 27107 ft 414 kts 117°
2026-05-07 23:25 19.32778 -98.16434 27444 ft 416 kts 117°
2026-05-07 23:25 19.31541 -98.13645 27778 ft 419 kts 117°
2026-05-07 23:26 19.30297 -98.10841 28114 ft 422 kts 117°
2026-05-07 23:26 19.29042 -98.08013 28439 ft 424 kts 117°
2026-05-07 23:26 19.27776 -98.05164 28757 ft 427 kts 117°
2026-05-07 23:26 19.26685 -98.02270 29032 ft 432 kts 105°
2026-05-07 23:27 19.26057 -97.95882 29663 ft 440 kts 96°
2026-05-07 23:27 19.25830 -97.92652 30014 ft 441 kts 96°
2026-05-07 23:27 19.25618 -97.89396 30281 ft 444 kts 95°
2026-05-07 23:28 19.25415 -97.86165 30562 ft 446 kts 95°
2026-05-07 23:28 19.25211 -97.82879 30835 ft 448 kts 95°
2026-05-07 23:28 19.25005 -97.79560 31107 ft 450 kts 95°
2026-05-07 23:28 19.24801 -97.76282 31383 ft 452 kts 95°
2026-05-07 23:29 19.24593 -97.72954 31649 ft 454 kts 95°
2026-05-07 23:29 19.24383 -97.69595 31919 ft 456 kts 95°
2026-05-07 23:29 19.24172 -97.66237 32181 ft 458 kts 95°
2026-05-07 23:29 19.23960 -97.62863 32444 ft 460 kts 95°
2026-05-07 23:30 19.23748 -97.59502 32697 ft 462 kts 95°
2026-05-07 23:30 19.23532 -97.56085 32910 ft 466 kts 96°
2026-05-07 23:30 19.23314 -97.52646 33143 ft 468 kts 96°
2026-05-07 23:30 19.23097 -97.49242 33397 ft 470 kts 96°
2026-05-07 23:31 19.22877 -97.45788 33626 ft 472 kts 96°
2026-05-07 23:31 19.22656 -97.42319 33942 ft 472 kts 96°
2026-05-07 23:31 19.22433 -97.38855 34222 ft 471 kts 96°
2026-05-07 23:31 19.22209 -97.35385 34518 ft 470 kts 96°
2026-05-07 23:32 19.21988 -97.31963 34807 ft 470 kts 96°
2026-05-07 23:32 19.21764 -97.28506 34970 ft 471 kts 96°
2026-05-07 23:32 19.21315 -97.21604 34995 ft 468 kts 96°
2026-05-07 23:33 19.20868 -97.14769 34944 ft 467 kts 96°
2026-05-07 23:33 19.20416 -97.07904 34932 ft 468 kts 96°
2026-05-07 23:34 19.19960 -97.01031 34909 ft 467 kts 96°
2026-05-07 23:34 19.19505 -96.94199 34882 ft 467 kts 96°
2026-05-07 23:35 19.19045 -96.87318 34858 ft 467 kts 96°
2026-05-07 23:35 19.18585 -96.80494 34836 ft 467 kts 96°
2026-05-07 23:36 19.18120 -96.73626 34826 ft 467 kts 96°
2026-05-07 23:36 19.17656 -96.66811 34805 ft 467 kts 96°
2026-05-07 23:37 19.17185 -96.59930 34799 ft 467 kts 96°
2026-05-07 23:37 19.16716 -96.53105 34795 ft 467 kts 96°
2026-05-07 23:38 19.16241 -96.46250 34797 ft 467 kts 96°
2026-05-07 23:38 19.15844 -96.40543 34802 ft 467 kts 96°
2026-05-07 23:39 19.15286 -96.32567 34813 ft 467 kts 96°
2026-05-07 23:39 19.14886 -96.26866 34822 ft 466 kts 95°
2026-05-07 23:40 19.14297 -96.18901 34821 ft 466 kts 97°
2026-05-07 23:40 19.13608 -96.12113 34823 ft 466 kts 97°
2026-05-07 23:41 19.13046 -96.06428 34817 ft 466 kts 97°
2026-05-07 23:41 19.12369 -95.99603 34816 ft 465 kts 97°
2026-05-07 23:42 19.11695 -95.92811 34809 ft 465 kts 97°
2026-05-07 23:42 19.11016 -95.86007 34803 ft 465 kts 97°
2026-05-07 23:43 19.10337 -95.79215 34799 ft 465 kts 97°
2026-05-07 23:43 19.09647 -95.72395 34795 ft 465 kts 97°
2026-05-07 23:44 19.08958 -95.65627 34799 ft 465 kts 97°
2026-05-07 23:44 19.08263 -95.58836 34796 ft 466 kts 97°
2026-05-07 23:45 19.07562 -95.51998 34798 ft 466 kts 97°
2026-05-07 23:45 19.06865 -95.45229 34798 ft 466 kts 97°
2026-05-07 23:46 19.06161 -95.38416 34793 ft 466 kts 97°
2026-05-07 23:46 19.05457 -95.31625 34797 ft 466 kts 97°
2026-05-07 23:47 19.04746 -95.24801 34802 ft 466 kts 97°
2026-05-07 23:47 19.04038 -95.18018 34799 ft 466 kts 97°
2026-05-07 23:48 19.03322 -95.11197 34796 ft 466 kts 97°
2026-05-07 23:48 19.02606 -95.04408 34797 ft 466 kts 97°
2026-05-07 23:49 19.01884 -94.97581 34795 ft 467 kts 97°
2026-05-07 23:49 19.01163 -94.90796 34798 ft 467 kts 97°
2026-05-07 23:50 19.00435 -94.83965 34801 ft 467 kts 97°
2026-05-07 23:50 18.99709 -94.77173 34800 ft 467 kts 97°
2026-05-07 23:51 18.98975 -94.70339 34796 ft 467 kts 97°
2026-05-07 23:51 18.98242 -94.63539 34797 ft 468 kts 97°
2026-05-07 23:52 18.97503 -94.56700 34799 ft 468 kts 97°
2026-05-07 23:52 18.96765 -94.49898 34800 ft 468 kts 97°
2026-05-07 23:53 18.96020 -94.43048 34795 ft 468 kts 97°
2026-05-07 23:53 18.95280 -94.36263 34797 ft 468 kts 97°
2026-05-07 23:54 18.94529 -94.29415 34797 ft 468 kts 97°
2026-05-07 23:54 18.93782 -94.22619 34797 ft 468 kts 97°
2026-05-07 23:55 18.93026 -94.15766 34797 ft 468 kts 97°
2026-05-07 23:55 18.92289 -94.09110 34474 ft 449 kts 97°
2026-05-07 23:56 18.91925 -94.05832 34019 ft 446 kts 97°
2026-05-07 23:56 18.91562 -94.02570 33425 ft 446 kts 97°
2026-05-07 23:56 18.91205 -93.99361 32884 ft 445 kts 97°
2026-05-07 23:56 18.90843 -93.96111 32389 ft 442 kts 97°
2026-05-07 23:57 18.90482 -93.92885 31927 ft 439 kts 97°
2026-05-07 23:57 18.90125 -93.89694 31445 ft 437 kts 98°
2026-05-07 23:57 18.89772 -93.86545 30974 ft 435 kts 98°
2026-05-07 23:57 18.89416 -93.83368 30505 ft 433 kts 98°
2026-05-07 23:58 18.89062 -93.80224 30043 ft 431 kts 98°
2026-05-07 23:58 18.88710 -93.77091 29532 ft 428 kts 98°
2026-05-07 23:58 18.88359 -93.73977 29028 ft 426 kts 98°
2026-05-07 23:58 18.88009 -93.70875 28585 ft 421 kts 98°
2026-05-07 23:59 18.87668 -93.67853 28162 ft 417 kts 98°
2026-05-07 23:59 18.87323 -93.64810 27731 ft 414 kts 98°
2026-05-07 23:59 18.86981 -93.61799 27307 ft 410 kts 98°
2026-05-07 23:59 18.86648 -93.58862 26889 ft 407 kts 99°
2026-05-08 00:00 18.86310 -93.55900 26478 ft 401 kts 98°
2026-05-08 00:00 18.85979 -93.52995 26080 ft 394 kts 98°
2026-05-08 00:00 18.85656 -93.50148 25688 ft 387 kts 99°
2026-05-08 00:00 18.85337 -93.47351 25305 ft 380 kts 99°
2026-05-08 00:01 18.85022 -93.44595 24927 ft 374 kts 99°
2026-05-08 00:01 18.84716 -93.41921 24562 ft 368 kts 99°
2026-05-08 00:01 18.84410 -93.39251 24199 ft 362 kts 99°
2026-05-08 00:01 18.84108 -93.36621 23843 ft 358 kts 99°
2026-05-08 00:02 18.83815 -93.34044 23466 ft 358 kts 98°
2026-05-08 00:02 18.83525 -93.31421 23026 ft 357 kts 98°
2026-05-08 00:02 18.83237 -93.28814 22664 ft 354 kts 99°
2026-05-08 00:02 18.82955 -93.26270 22319 ft 351 kts 98°
2026-05-08 00:03 18.82671 -93.23719 21981 ft 348 kts 98°
2026-05-08 00:03 18.82390 -93.21189 21646 ft 345 kts 98°
2026-05-08 00:03 18.82114 -93.18706 21310 ft 342 kts 98°
2026-05-08 00:03 18.81837 -93.16225 20979 ft 339 kts 98°
2026-05-08 00:04 18.81562 -93.13758 20652 ft 336 kts 98°
2026-05-08 00:04 18.81288 -93.11313 20322 ft 333 kts 98°
2026-05-08 00:04 18.81020 -93.08915 20003 ft 330 kts 98°
2026-05-08 00:04 18.80751 -93.06514 19686 ft 328 kts 98°
2026-05-08 00:05 18.80484 -93.04128 19370 ft 325 kts 98°
2026-05-08 00:05 18.80218 -93.01756 19056 ft 322 kts 98°
2026-05-08 00:05 18.79958 -92.99449 18744 ft 320 kts 98°
2026-05-08 00:05 18.79696 -92.97121 18433 ft 318 kts 98°
2026-05-08 00:06 18.79435 -92.94805 18130 ft 316 kts 98°
2026-05-08 00:06 18.79178 -92.92521 17867 ft 311 kts 98°
2026-05-08 00:06 18.78926 -92.90296 17593 ft 306 kts 98°
2026-05-08 00:06 18.78675 -92.88072 17302 ft 302 kts 98°
2026-05-08 00:07 18.78427 -92.85874 17014 ft 299 kts 98°
2026-05-08 00:07 18.78181 -92.83707 16725 ft 297 kts 98°
2026-05-08 00:07 18.77935 -92.81534 16426 ft 303 kts 98°
2026-05-08 00:07 18.77681 -92.79303 16122 ft 307 kts 98°
2026-05-08 00:08 18.77427 -92.77063 15828 ft 307 kts 97°
2026-05-08 00:08 18.77172 -92.74823 15532 ft 306 kts 97°
2026-05-08 00:08 18.76922 -92.72625 15236 ft 303 kts 97°
2026-05-08 00:08 18.76671 -92.70421 14937 ft 300 kts 98°
2026-05-08 00:09 18.76424 -92.68262 14646 ft 298 kts 97°
2026-05-08 00:09 18.76177 -92.66095 14355 ft 295 kts 98°
2026-05-08 00:09 18.75932 -92.63951 14067 ft 293 kts 97°
2026-05-08 00:09 18.75688 -92.61826 13778 ft 291 kts 97°
2026-05-08 00:10 18.75446 -92.59705 13472 ft 290 kts 97°
2026-05-08 00:10 18.75201 -92.57574 13151 ft 294 kts 97°
2026-05-08 00:10 18.74956 -92.55440 12844 ft 298 kts 97°
2026-05-08 00:10 18.74706 -92.53266 12551 ft 298 kts 97°
2026-05-08 00:11 18.74456 -92.51096 12250 ft 295 kts 97°
2026-05-08 00:11 18.74210 -92.48954 11961 ft 293 kts 97°
2026-05-08 00:11 18.73967 -92.46852 11681 ft 290 kts 97°
2026-05-08 00:11 18.73725 -92.44751 11395 ft 287 kts 97°
2026-05-08 00:12 18.73484 -92.42668 11120 ft 284 kts 98°
2026-05-08 00:12 18.73246 -92.40604 10842 ft 282 kts 97°
2026-05-08 00:12 18.73010 -92.38573 10564 ft 280 kts 98°
2026-05-08 00:12 18.72773 -92.36521 10281 ft 284 kts 97°
2026-05-08 00:13 18.72532 -92.34443 10068 ft 285 kts 98°
2026-05-08 00:13 18.72289 -92.32351 9795 ft 286 kts 97°
2026-05-08 00:13 18.72047 -92.30266 9506 ft 286 kts 97°
2026-05-08 00:13 18.71807 -92.28206 9195 ft 285 kts 97°
2026-05-08 00:14 18.71566 -92.26130 8894 ft 283 kts 97°
2026-05-08 00:14 18.71326 -92.24076 8600 ft 280 kts 98°
2026-05-08 00:14 18.71083 -92.22062 8285 ft 279 kts 98°
2026-05-08 00:14 18.70839 -92.20040 8004 ft 276 kts 98°
2026-05-08 00:15 18.70598 -92.18035 7731 ft 274 kts 98°
2026-05-08 00:15 18.70360 -92.16048 7449 ft 272 kts 98°
2026-05-08 00:15 18.70122 -92.14079 7171 ft 269 kts 98°
2026-05-08 00:15 18.69889 -92.12150 6905 ft 267 kts 97°
2026-05-08 00:16 18.69655 -92.10209 6638 ft 265 kts 98°
2026-05-08 00:16 18.69425 -92.08298 6465 ft 257 kts 97°
2026-05-08 00:16 18.69198 -92.06427 5910 ft 261 kts 98°
2026-05-08 00:16 18.68968 -92.04458 5276 ft 269 kts 95°
2026-05-08 00:17 18.69022 -92.02550 5089 ft 259 kts 82°
2026-05-08 00:17 18.69491 -92.00758 4927 ft 249 kts 69°
2026-05-08 00:17 18.70290 -91.99183 4749 ft 237 kts 58°
2026-05-08 00:17 18.71315 -91.97871 4550 ft 227 kts 47°
2026-05-08 00:18 18.72500 -91.96821 4361 ft 218 kts 38°
2026-05-08 00:18 18.73767 -91.96050 4173 ft 208 kts 28°
2026-05-08 00:18 18.75029 -91.95351 3883 ft 203 kts 34°
2026-05-08 00:18 18.76189 -91.94523 3541 ft 199 kts 41°
2026-05-08 00:19 18.77122 -91.93465 3186 ft 195 kts 61°
2026-05-08 00:19 18.77430 -91.92120 2877 ft 187 kts 96°
2026-05-08 00:19 18.77002 -91.90889 2695 ft 180 kts 124°
2026-05-08 00:19 18.76160 -91.89934 2484 ft 175 kts 134°
2026-05-08 00:20 18.75277 -91.89067 2355 ft 173 kts 134°
2026-05-08 00:20 18.74429 -91.88229 2225 ft 158 kts 132°
2026-05-08 00:20 18.73635 -91.87459 2051 ft 152 kts 135°
2026-05-08 00:20 18.72848 -91.86729 1804 ft 152 kts 135°
2026-05-08 00:21 18.72044 -91.85995 1586 ft 153 kts 134°
2026-05-08 00:21 18.71262 -91.85246 1275 ft 154 kts 134°
2026-05-08 00:21 18.70486 -91.84490 1112 ft 147 kts 133°
2026-05-08 00:21 18.69698 -91.83780 956 ft 148 kts 138°
2026-05-08 00:22 18.68837 -91.83150 834 ft 153 kts 143°
2026-05-08 00:22 18.67991 -91.82477 648 ft 153 kts 137°
2026-05-08 00:22 18.67179 -91.81758 420 ft 150 kts 131°
2026-05-08 00:22 18.66418 -91.81047 189 ft 146 kts 132°
2026-05-08 00:23 18.65636 -91.80346 27 ft 140 kts 134°
2026-05-08 00:23 18.65036 -91.79811 23 ft 77 kts 140°
2026-05-08 00:23 18.64790 -91.79594 19 ft 16 kts 139°
2026-05-08 00:23 18.64723 -91.79568 18 ft 10 kts 216°
2026-05-08 00:24 18.64714 -91.79594 19 ft 4 kts 264°
2026-05-08 00:24 18.64710 -91.79626 19 ft 5 kts 264°
2026-05-08 00:24 18.64704 -91.79667 20 ft 6 kts 258°
2026-05-08 00:24 18.64705 -91.79718 20 ft 8 kts 297°
2026-05-08 00:25 18.64751 -91.79763 22 ft 10 kts 320°
2026-05-08 00:25 18.64812 -91.79817 20 ft 12 kts 320°
2026-05-08 00:25 18.64884 -91.79880 20 ft 15 kts 320°
2026-05-08 00:25 18.64969 -91.79953 20 ft 17 kts 321°
2026-05-08 00:26 18.65047 -91.80022 20 ft 10 kts 318°
2026-05-08 00:26 18.65094 -91.80068 20 ft 0 kts 322°
2026-05-08 00:26 18.65096 -91.80070 20 ft 2 kts 322°
2026-05-08 00:27 18.65122 -91.80091 22 ft 8 kts 322°
2026-05-08 00:27 18.65171 -91.80132 21 ft 7 kts 319°
2026-05-08 00:27 18.65191 -91.80151 20 ft 6 kts 313°
2026-05-08 00:27 18.65188 -91.80184 20 ft 1 kts 228°
2026-05-08 00:28 18.65173 -91.80202 21 ft 1 kts 230°
2026-05-08 00:28 18.65163 -91.80214 22 ft 1 kts 228°